Location: Songkhla
(7.2000°N, 100.6000°E)
Time: 08:56:33
(UTC+07:00)

Daily predictions for brighter satellites

Satellite Brightness Start Highest point End
(mag) Time Altitude Azimuth Time Altitude Azimuth Time Altitude Azimuth
Centaur D-1A AC-31 4.2 17:53:42 10° SSW 18:00:13 41° SE 18:58:59 10° ENE
Centaur D-1A AC-31 4.2 17:53:42 10° SSW 18:00:14 41° SE 18:58:59 10° ENE
Centaur D-1A AC-31 4.2 17:53:43 10° SSW 18:00:14 41° SE 18:59:00 10° ENE
Ariane H10 4.2 18:22:31 10° W 18:26:01 83° S 18:42:35 10° E
Cosmos 2218 Rocket 4.4 18:45:36 10° N 18:51:58 77° W 18:58:21 10° S
ALOS 3.1 18:53:16 10° SE 18:57:21 31° ENE 19:01:25 10° NNE
COSMOS 2428 3.4 18:52:55 10° N 18:58:07 36° ENE 19:03:17 10° SE
Cosmos 389 Rocket 2.9 18:56:33 10° NNW 19:00:07 69° W 19:03:45 10° S
Iridium 2 4.5 19:01:25 10° NNE 19:04:52 32° E 19:08:19 10° SSE
Cosmos 2219 Rocket 3.5 19:02:32 10° NNE 19:06:49 22° ENE 19:11:04 10° ESE
METEOR-M 4.2 19:04:37 10° SSE 19:09:59 88° WSW 19:15:19 10° NNW
Resurs 01 Rocket 3.4 19:15:42 12° ESE 19:17:36 15° ENE 19:20:05 10° NE
GPS 2-18 Rocket1 3.6 19:15:56 10° SW 19:19:44 41° SSE 19:22:51 14° E
SJ-6B 3.2 19:18:37 10° SSE 19:22:20 42° ENE 19:25:58 10° N
Cosmos 2333 Rocket 3.3 19:18:19 10° NNE 19:22:52 25° ENE 19:26:02 16° ESE
Cosmos 2297 Rocket 4.1 19:20:55 10° SW 19:25:56 33° WNW 19:30:57 10° N
Cosmos 1340 Rocket 3.5 19:23:27 10° SSE 19:27:03 33° E 19:30:40 10° NNE
USA 234 3.6 19:22:54 10° ENE 19:28:59 42° SE 19:35:03 10° SSW
HJ-1C 3.8 19:28:30 17° SE 19:30:42 41° ENE 19:33:52 10° N
Cosmos 1733 3.1 19:27:33 10° N 19:31:24 73° E 19:35:14 10° S
Cosmos 1140 Rocket 4.5 19:26:54 10° SSW 19:31:55 50° WNW 19:36:54 10° N
Cosmos 1184 Rocket 3.0 19:30:21 10° S 19:33:35 49° E 19:36:48 10° NNE
CZ-2D R/B 4.5 19:35:07 22° E 19:35:54 23° ENE 19:38:57 10° NNE
FREGAT/IRIS 3.1 19:33:38 10° S 19:36:39 60° W 19:39:39 10° NNW
FengYun 1-2 T 4.2 19:35:35 10° SSE 19:41:02 68° ENE 19:46:27 10° N
ARIANE 5 R/B 2.9 19:41:16 10° SW 19:44:03 40° SSE 19:48:04 22° ESE
Cosmos 1470 3.2 19:44:17 10° NNW 19:48:06 60° W 19:51:55 10° S
Cosmos-2242 2.9 19:44:48 10° N 19:49:06 84° E 19:52:25 17° S
ATLAS 2AS CENTAUR R/B 3.1 19:44:37 10° NNW 19:51:52 62° WSW 19:57:57 12° S
Ariane H10+ 3.3 19:52:42 10° SSW 19:52:59 10° SSW 19:52:59 10° SSW
USA 32 4.0 19:55:15 21° SSE 19:58:41 57° E 20:03:48 10° NNE
Celestis-02/Orion 38 4.4 20:00:31 32° SSE 20:02:57 80° ENE 20:08:03 10° NNW
SWIFT 2.2 20:00:35 10° WNW 20:04:50 81° NNE 20:05:35 59° E
Cosmos 1980 3.9 19:59:23 10° N 20:04:51 50° ENE 20:06:12 41° ESE
DELTA 2 R/B (1) 4.1 20:00:01 10° NNW 20:05:22 45° NE 20:06:57 36° E
H-2A R/B 3.7 20:07:12 21° SSW 20:09:18 43° W 20:12:54 10° NNW
Cosmos 2237 Rocket 2.2 20:08:42 10° N 20:14:12 56° ENE 20:15:04 51° ESE
Okean 3 Rocket 3.6 20:19:26 45° SSW 20:20:47 79° W 20:25:15 10° N
Spelda 3.8 20:10:46 10° W 20:21:25 65° N 20:21:59 56° NE
Ariane 42P Rocket 3.6 20:01:05 10° W 20:22:17 63° S 20:23:27 52° SE
USA 215 4.3 20:19:29 18° S 20:23:37 37° SW 20:29:32 10° WNW
OAO 3 Rocket 3.6 20:20:54 10° NW 20:25:12 49° NNE 20:25:12 49° NNE
Aureole 2 Rocket 3.5 20:22:57 10° NNW 20:25:43 43° NW 20:25:43 43° NW
GOES 2 Rocket 4.4 20:29:04 10° WNW 20:34:31 50° SSW 20:35:24 47° S
GEOS 3 Rocket 3.4 20:35:02 81° SSW 20:35:11 82° WSW 20:40:17 10° NNW
Helios 1B rocket 3.8 20:33:45 10° N 20:37:33 37° WNW 20:39:00 27° WSW
Spelda 3.7 20:35:51 10° W 20:37:33 36° WSW 20:37:33 36° WSW
SL-16 R/B 3.5 20:35:21 10° N 20:38:23 26° NE 20:38:23 26° NE
Spot 2 Rocket 4.4 20:45:11 39° SW 20:46:03 43° WSW 20:50:49 10° NNW
Cosmos 2219 Rocket 4.0 20:45:57 10° NW 20:50:29 26° WSW 20:52:51 19° SW
Resurs 01 Rocket 3.5 20:53:16 23° WSW 20:53:47 24° W 20:57:18 10° NW
Cosmos 2333 Rocket 4.1 21:02:33 10° NW 21:06:50 22° WSW 21:08:05 21° WSW
Envisat 4.4 21:12:04 35° WNW 21:12:04 35° WNW 21:15:33 10° NNW
Cosmos 2263 Rocket 4.3 21:20:13 18° N 21:20:13 18° N 21:21:39 10° N
Ariane H10+ 4.3 21:02:10 10° W 21:24:02 69° W 21:24:02 69° W
Milstar 3 Cent rocket 4.5 22:28:56 10° NW 22:36:33 59° NNW 22:36:33 59° NNW
